• In Spain
  • List of Countries
  • For 7 days
  • Water Temperature
  • Satellite Maps
  • Weather Map
  • Weather Widgets
  • user-avatar
    Login

    Hourly Weather Tirana

    Today, 20 October, Saturday

    Time Temperature Precipitation Wind Pressure Humidity
    00:00 +18°C° 0 mm 2 mps 755 mmHg 65%
    01:00 +18°C° 0 mm 2 mps 755 mmHg 67%
    02:00 +18°C° 0 mm 2 mps 755 mmHg 68%
    03:00 +17°C° 0 mm 2 mps 755 mmHg 69%
    04:00 +17°C° 0 mm 2 mps 755 mmHg 70%
    05:00 +17°C° 0 mm 2 mps 755 mmHg 69%
    06:00 +18°C° 0 mm 2 mps 756 mmHg 68%
    07:00 +18°C° 0 mm 2 mps 756 mmHg 67%
    08:00 +20°C° 0 mm 2 mps 756 mmHg 59%
    09:00 +24°C° 0 mm 2 mps 756 mmHg 51%
    10:00 +26°C° 0 mm 2 mps 756 mmHg 42%
    11:00 +26°C° 0 mm 3 mps 756 mmHg 40%
    12:00 +27°C° 0 mm 3 mps 756 mmHg 38%
    13:00 +27°C° 0 mm 4 mps 756 mmHg 36%
    14:00 +27°C° 0 mm 4 mps 756 mmHg 37%
    15:00 +26°C° 0 mm 4 mps 755 mmHg 39%
    16:00 +25°C° 0 mm 5 mps 755 mmHg 41%
    17:00 +22°C° 0 mm 5 mps 756 mmHg 46%
    18:00 +20°C° 0 mm 4 mps 756 mmHg 52%
    19:00 +19°C° 0 mm 4 mps 756 mmHg 57%
    20:00 +18°C° 0 mm 4 mps 756 mmHg 59%
    21:00 +18°C° 0 mm 4 mps 756 mmHg 61%
    22:00 +17°C° 0 mm 4 mps 756 mmHg 63%
    23:00 +17°C° 0 mm 4 mps 756 mmHg 64%

    Tomorrow, 21 October, Sunday

    Time Temperature Precipitation Wind Pressure Humidity
    00:00 +17°C° 0 mm 3 mps 756 mmHg 65%
    01:00 +16°C° 0 mm 3 mps 756 mmHg 66%
    02:00 +16°C° 0 mm 3 mps 756 mmHg 67%
    03:00 +16°C° 0 mm 3 mps 756 mmHg 68%
    04:00 +14°C° 0 mm 3 mps 755 mmHg 69%
    05:00 +16°C° 0 mm 3 mps 755 mmHg 68%
    06:00 +16°C° 0 mm 3 mps 755 mmHg 67%
    07:00 +16°C° 0 mm 3 mps 755 mmHg 66%
    08:00 +18°C° 0 mm 3 mps 755 mmHg 58%
    09:00 +20°C° 0 mm 2 mps 755 mmHg 50%
    10:00 +23°C° 0 mm 2 mps 755 mmHg 42%
    11:00 +24°C° 0 mm 2 mps 754 mmHg 40%
    12:00 +24°C° 0 mm 2 mps 754 mmHg 39%
    13:00 +25°C° 0 mm 3 mps 754 mmHg 37%
    14:00 +24°C° 0 mm 3 mps 753 mmHg 39%
    15:00 +24°C° 0 mm 3 mps 753 mmHg 42%
    16:00 +22°C° 0 mm 4 mps 753 mmHg 45%
    17:00 +21°C° 0 mm 4 mps 753 mmHg 50%
    18:00 +19°C° 0 mm 4 mps 753 mmHg 54%
    19:00 +18°C° 0 mm 4 mps 754 mmHg 59%
    20:00 +17°C° 0.1 mm 4 mps 754 mmHg 61%
    21:00 +17°C° 0.1 mm 4 mps 754 mmHg 63%
    22:00 +16°C° 0.1 mm 3 mps 754 mmHg 65%
    23:00 +16°C° 0 mm 3 mps 754 mmHg 65%

    Day after tomorrow, 22 October, Monday

    Time Temperature Precipitation Wind Pressure Humidity
    00:00 +16°C° 0 mm 3 mps 754 mmHg 65%
    01:00 +14°C° 0 mm 3 mps 754 mmHg 65%
    02:00 +14°C° 0 mm 4 mps 754 mmHg 66%
    03:00 +14°C° 0 mm 4 mps 754 mmHg 66%
    04:00 +13°C° 0 mm 5 mps 753 mmHg 67%
    05:00 +13°C° 0.2 mm 5 mps 753 mmHg 65%
    06:00 +14°C° 0.2 mm 5 mps 753 mmHg 64%
    07:00 +14°C° 0.2 mm 5 mps 753 mmHg 63%
    08:00 +17°C° 0.5 mm 4 mps 753 mmHg 58%
    09:00 +18°C° 0.5 mm 4 mps 753 mmHg 53%
    10:00 +20°C° 0.5 mm 4 mps 753 mmHg 49%
    11:00 +20°C° 1.3 mm 4 mps 753 mmHg 51%
    12:00 +19°C° 1.3 mm 3 mps 752 mmHg 53%
    13:00 +19°C° 1.3 mm 3 mps 752 mmHg 56%
    14:00 +18°C° 0.9 mm 3 mps 752 mmHg 59%
    15:00 +18°C° 0.9 mm 4 mps 751 mmHg 63%
    16:00 +17°C° 0.9 mm 4 mps 751 mmHg 66%
    17:00 +17°C° 0.9 mm 4 mps 751 mmHg 69%
    18:00 +15°C° 0.9 mm 4 mps 752 mmHg 72%
    19:00 +15°C° 0.9 mm 4 mps 752 mmHg 75%
    20:00 +15°C° 0.7 mm 4 mps 752 mmHg 75%
    21:00 +15°C° 0.7 mm 5 mps 752 mmHg 76%
    22:00 +15°C° 0.7 mm 5 mps 752 mmHg 77%
    23:00 +15°C° 0.1 mm 5 mps 752 mmHg 76%

    23 October, Tuesday

    Time Temperature Precipitation Wind Pressure Humidity
    00:00 +15°C° 0.1 mm 5 mps 752 mmHg 76%
    01:00 +14°C° 0.1 mm 5 mps 751 mmHg 75%
    02:00 +14°C° 0.1 mm 5 mps 751 mmHg 76%
    03:00 +14°C° 0.1 mm 4 mps 751 mmHg 76%
    04:00 +14°C° 0.1 mm 4 mps 751 mmHg 77%
    05:00 +14°C° 0.1 mm 4 mps 751 mmHg 76%
    06:00 +15°C° 0.1 mm 5 mps 751 mmHg 75%
    07:00 +15°C° 0.1 mm 5 mps 751 mmHg 75%
    08:00 +16°C° 0 mm 5 mps 751 mmHg 69%
    09:00 +17°C° 0 mm 5 mps 751 mmHg 64%
    10:00 +19°C° 0 mm 6 mps 751 mmHg 59%
    11:00 +19°C° 0 mm 5 mps 750 mmHg 58%
    12:00 +19°C° 0 mm 5 mps 750 mmHg 57%
    13:00 +19°C° 0 mm 5 mps 750 mmHg 56%
    14:00 +18°C° 0.3 mm 4 mps 750 mmHg 61%
    15:00 +18°C° 0.3 mm 4 mps 750 mmHg 66%
    16:00 +17°C° 0.3 mm 4 mps 750 mmHg 71%
    17:00 +15°C° 0.7 mm 4 mps 750 mmHg 73%
    18:00 +15°C° 0.7 mm 4 mps 750 mmHg 76%
    19:00 +15°C° 0.7 mm 4 mps 750 mmHg 78%
    20:00 +14°C° 0.5 mm 4 mps 750 mmHg 79%
    21:00 +14°C° 0.5 mm 5 mps 750 mmHg 79%
    22:00 +14°C° 0.5 mm 5 mps 751 mmHg 80%
    23:00 +14°C° 0.3 mm 5 mps 750 mmHg 79%

    24 October, Wednesday

    Time Temperature Precipitation Wind Pressure Humidity
    00:00 +14°C° 0.3 mm 6 mps 750 mmHg 79%
    01:00 +14°C° 0.3 mm 6 mps 750 mmHg 79%
    02:00 +14°C° 0.1 mm 6 mps 750 mmHg 78%
    03:00 +13°C° 0.1 mm 6 mps 750 mmHg 77%
    04:00 +13°C° 0.1 mm 6 mps 750 mmHg 76%
    05:00 +13°C° 0 mm 6 mps 750 mmHg 75%
    06:00 +13°C° 0 mm 6 mps 750 mmHg 74%
    07:00 +13°C° 0 mm 6 mps 750 mmHg 73%
    08:00 +15°C° 0 mm 6 mps 750 mmHg 66%
    09:00 +16°C° 0 mm 5 mps 750 mmHg 59%
    10:00 +19°C° 0 mm 5 mps 750 mmHg 51%
    11:00 +20°C° 0 mm 5 mps 749 mmHg 48%
    12:00 +20°C° 0 mm 5 mps 749 mmHg 45%
    13:00 +21°C° 0 mm 5 mps 748 mmHg 42%
    14:00 +21°C° 0 mm 5 mps 748 mmHg 44%
    15:00 +20°C° 0 mm 6 mps 748 mmHg 45%
    16:00 +20°C° 0 mm 6 mps 748 mmHg 47%
    17:00 +17°C° 0 mm 6 mps 748 mmHg 50%
    18:00 +16°C° 0 mm 5 mps 749 mmHg 53%
    19:00 +14°C° 0 mm 5 mps 749 mmHg 56%
    20:00 +14°C° 0 mm 5 mps 750 mmHg 56%
    21:00 +14°C° 0 mm 5 mps 750 mmHg 56%
    22:00 +13°C° 0 mm 5 mps 750 mmHg 56%
    23:00 +13°C° 0 mm 4 mps 750 mmHg 57%

    25 October, Thursday

    Time Temperature Precipitation Wind Pressure Humidity
    00:00 +13°C° 0 mm 4 mps 750 mmHg 57%
    01:00 +13°C° 0 mm 4 mps 750 mmHg 58%
    02:00 +12°C° 0 mm 5 mps 751 mmHg 59%
    03:00 +12°C° 0 mm 5 mps 751 mmHg 60%
    04:00 +12°C° 0 mm 5 mps 751 mmHg 61%
    05:00 +12°C° 0 mm 5 mps 752 mmHg 62%
    06:00 +13°C° 0 mm 5 mps 752 mmHg 62%
    07:00 +13°C° 0 mm 5 mps 752 mmHg 63%
    08:00 +15°C° 0 mm 5 mps 753 mmHg 56%
    09:00 +17°C° 0 mm 5 mps 753 mmHg 50%
    10:00 +21°C° 0 mm 5 mps 753 mmHg 43%
    11:00 +21°C° 0 mm 5 mps 753 mmHg 42%
    12:00 +22°C° 0 mm 5 mps 753 mmHg 40%
    13:00 +22°C° 0 mm 5 mps 753 mmHg 38%
    14:00 +22°C° 0 mm 5 mps 753 mmHg 41%
    15:00 +21°C° 0 mm 5 mps 753 mmHg 43%
    16:00 +20°C° 0 mm 5 mps 754 mmHg 46%
    17:00 +19°C° 0 mm 5 mps 754 mmHg 50%
    18:00 +16°C° 0 mm 5 mps 755 mmHg 53%
    19:00 +15°C° 0 mm 4 mps 755 mmHg 57%
    20:00 +14°C° 0 mm 4 mps 755 mmHg 58%
    21:00 +14°C° 0 mm 4 mps 756 mmHg 60%
    22:00 +14°C° 0 mm 4 mps 756 mmHg 62%
    23:00 +13°C° 0 mm 4 mps 756 mmHg 64%
    Show more